User: anonymous   Login
Location: Kergrach
(48.3833°N, 4.5167°W)
Time: 05:24:07
(UTC+00:00)
Language:

Cosmos 1459 Rocket - Orbit

View from above orbital plane
View from above orbital plane
View from above satellite
View from above satellite

Ground track
Ground track

The orbit data is extracted from the following two-line orbital elements,

1 14059U 83042B   20156.83970821  .00000085  00000-0  67936-4 0  9996
2 14059  82.9706 337.5344 0044026 102.8138 257.7944 13.78687058865067
Epoch (UTC): 04 June 2020 20:09:10
Eccentricity: 0.0044026
inclination: 82.9706°
perigee height: 936 km
apogee height: 1001 km
right ascension of ascending node: 337.5344°
argument of perigee: 102.8138°
revolutions per day: 13.78687058
mean anomaly at epoch: 257.7944°
orbit number at epoch: 86506

The dashed part of the orbit path shows where the satellite is in the earth's shadow,  

DLR